Year,Month,Day,Hour,Minute,Value (Times are PST for temperature in C)
2008,08,04,00,00,12.90
2008,08,04,00,01,12.90
2008,08,04,00,02,12.90
2008,08,04,00,03,12.90
2008,08,04,00,04,12.90
2008,08,04,00,05,12.90
2008,08,04,00,06,12.90
2008,08,04,00,07,12.90
2008,08,04,00,08,12.90
2008,08,04,00,09,12.90
2008,08,04,00,10,12.90
2008,08,04,00,11,12.90
2008,08,04,00,12,12.90
2008,08,04,00,13,12.90
2008,08,04,00,14,12.90
2008,08,04,00,15,12.90
2008,08,04,00,16,12.90
2008,08,04,00,17,12.90
2008,08,04,00,18,12.80
2008,08,04,00,19,12.80
2008,08,04,00,20,12.80
2008,08,04,00,21,12.80
2008,08,04,00,22,12.80
2008,08,04,00,23,12.80
2008,08,04,00,24,12.80
2008,08,04,00,25,12.80
2008,08,04,00,26,12.80
2008,08,04,00,27,12.80
2008,08,04,00,28,12.80
2008,08,04,00,29,12.80
2008,08,04,00,30,12.80
2008,08,04,00,31,12.80
2008,08,04,00,32,12.80
2008,08,04,00,33,12.80
2008,08,04,00,34,12.80
2008,08,04,00,35,12.80
2008,08,04,00,36,12.70
2008,08,04,00,37,12.70
2008,08,04,00,38,12.60
2008,08,04,00,39,12.60
2008,08,04,00,40,12.60
2008,08,04,00,41,12.50
2008,08,04,00,42,12.50
2008,08,04,00,43,12.40
2008,08,04,00,44,12.40
2008,08,04,00,45,12.30
2008,08,04,00,46,12.30
2008,08,04,00,47,12.30
2008,08,04,00,48,12.20
2008,08,04,00,49,12.20
2008,08,04,00,50,12.20
2008,08,04,00,51,12.20
2008,08,04,00,52,12.20
2008,08,04,00,53,12.20
2008,08,04,00,54,12.20
2008,08,04,00,55,12.20
2008,08,04,00,56,12.20
2008,08,04,00,57,12.20
2008,08,04,00,58,12.20
2008,08,04,00,59,12.20
2008,08,04,01,00,12.20
2008,08,04,01,01,12.20
2008,08,04,01,02,12.20
2008,08,04,01,03,12.20
2008,08,04,01,04,12.20
2008,08,04,01,05,12.20
2008,08,04,01,06,12.10
2008,08,04,01,07,12.10
2008,08,04,01,08,12.20
2008,08,04,01,09,12.20
2008,08,04,01,10,12.10
2008,08,04,01,11,12.10
2008,08,04,01,12,12.10
2008,08,04,01,13,12.10
2008,08,04,01,14,12.10
2008,08,04,01,15,12.20
2008,08,04,01,16,12.20
2008,08,04,01,17,12.20
2008,08,04,01,18,12.20
2008,08,04,01,19,12.20
2008,08,04,01,20,12.20
2008,08,04,01,21,12.20
2008,08,04,01,22,12.10
2008,08,04,01,23,12.10
2008,08,04,01,24,12.10
2008,08,04,01,25,12.10
2008,08,04,01,26,12.10
2008,08,04,01,27,12.10
2008,08,04,01,28,12.10
2008,08,04,01,29,12.10
2008,08,04,01,30,12.10
2008,08,04,01,31,12.10
2008,08,04,01,32,12.10
2008,08,04,01,33,12.10
2008,08,04,01,34,12.10
2008,08,04,01,35,12.10
2008,08,04,01,36,12.10
2008,08,04,01,37,12.10
2008,08,04,01,38,12.10
2008,08,04,01,39,12.10
2008,08,04,01,40,12.10
2008,08,04,01,41,12.10
2008,08,04,01,42,12.10
2008,08,04,01,43,12.10
2008,08,04,01,44,12.10
2008,08,04,01,45,12.10
2008,08,04,01,46,12.10
2008,08,04,01,47,12.10
2008,08,04,01,48,12.10
2008,08,04,01,49,12.10
2008,08,04,01,50,12.10
2008,08,04,01,51,12.10
2008,08,04,01,52,12.10
2008,08,04,01,53,12.10
2008,08,04,01,54,12.10
2008,08,04,01,55,12.10
2008,08,04,01,56,12.10
2008,08,04,01,57,12.10
2008,08,04,01,58,12.20
2008,08,04,01,59,12.20
2008,08,04,02,00,12.20
2008,08,04,02,01,12.20
2008,08,04,02,02,12.30
2008,08,04,02,03,12.30
2008,08,04,02,04,12.30
2008,08,04,02,05,12.30
2008,08,04,02,06,12.40
2008,08,04,02,07,12.50
2008,08,04,02,08,12.50
2008,08,04,02,09,12.60
2008,08,04,02,10,12.60
2008,08,04,02,11,12.60
2008,08,04,02,12,12.60
2008,08,04,02,13,12.60
2008,08,04,02,14,12.60
2008,08,04,02,15,12.60
2008,08,04,02,16,12.60
2008,08,04,02,17,12.60
2008,08,04,02,18,12.60
2008,08,04,02,19,12.60
2008,08,04,02,20,12.60
2008,08,04,02,21,12.60
2008,08,04,02,22,12.60
2008,08,04,02,23,12.50
2008,08,04,02,24,12.50
2008,08,04,02,25,12.50
2008,08,04,02,26,12.40
2008,08,04,02,27,12.50
2008,08,04,02,28,12.50
2008,08,04,02,29,12.50
2008,08,04,02,30,12.50
2008,08,04,02,31,12.50
2008,08,04,02,32,12.50
2008,08,04,02,33,12.50
2008,08,04,02,34,12.60
2008,08,04,02,35,12.60
2008,08,04,02,36,12.60
2008,08,04,02,37,12.60
2008,08,04,02,38,12.60
2008,08,04,02,39,12.60
2008,08,04,02,40,12.60
2008,08,04,02,41,12.50
2008,08,04,02,42,12.50
2008,08,04,02,43,12.50
2008,08,04,02,44,12.50
2008,08,04,02,45,12.50
2008,08,04,02,46,12.50
2008,08,04,02,47,12.50
2008,08,04,02,48,12.50
2008,08,04,02,49,12.50
2008,08,04,02,50,12.40
2008,08,04,02,51,12.40
2008,08,04,02,52,12.40
2008,08,04,02,53,12.40
2008,08,04,02,54,12.40
2008,08,04,02,55,12.40
2008,08,04,02,56,12.40
2008,08,04,02,57,12.40
2008,08,04,02,58,12.40
2008,08,04,02,59,12.40
2008,08,04,03,00,12.40
2008,08,04,03,01,12.40
2008,08,04,03,02,12.40
2008,08,04,03,03,12.40
2008,08,04,03,04,12.40
2008,08,04,03,05,12.30
2008,08,04,03,06,12.30
2008,08,04,03,07,12.30
2008,08,04,03,08,12.30
2008,08,04,03,09,12.30
2008,08,04,03,10,12.30
2008,08,04,03,11,12.30
2008,08,04,03,12,12.30
2008,08,04,03,13,12.30
2008,08,04,03,14,12.30
2008,08,04,03,15,12.30
2008,08,04,03,16,12.30
2008,08,04,03,17,12.20
2008,08,04,03,18,12.20
2008,08,04,03,19,12.20
2008,08,04,03,20,12.20
2008,08,04,03,21,12.20
2008,08,04,03,22,12.20
2008,08,04,03,23,12.20
2008,08,04,03,24,12.20
2008,08,04,03,25,12.20
2008,08,04,03,26,12.20
2008,08,04,03,27,12.20
2008,08,04,03,28,12.30
2008,08,04,03,29,12.30
2008,08,04,03,30,12.30
2008,08,04,03,31,12.30
2008,08,04,03,32,12.30
2008,08,04,03,33,12.40
2008,08,04,03,34,12.40
2008,08,04,03,35,12.40
2008,08,04,03,36,12.40
2008,08,04,03,37,12.40
2008,08,04,03,38,12.50
2008,08,04,03,39,12.50
2008,08,04,03,40,12.60
2008,08,04,03,41,12.60
2008,08,04,03,42,12.70
2008,08,04,03,43,12.80
2008,08,04,03,44,12.90
2008,08,04,03,45,13.00
2008,08,04,03,46,13.10
2008,08,04,03,47,13.10
2008,08,04,03,48,13.20
2008,08,04,03,49,13.20
2008,08,04,03,50,13.30
2008,08,04,03,51,13.20
2008,08,04,03,52,13.20
2008,08,04,03,53,13.20
2008,08,04,03,54,13.10
2008,08,04,03,55,13.10
2008,08,04,03,56,13.10
2008,08,04,03,57,13.10
2008,08,04,03,58,13.00
2008,08,04,03,59,13.00
2008,08,04,04,00,13.10
2008,08,04,04,01,13.10
2008,08,04,04,02,13.10
2008,08,04,04,03,13.10
2008,08,04,04,04,13.10
2008,08,04,04,05,13.00
2008,08,04,04,06,13.00
2008,08,04,04,07,13.00
2008,08,04,04,08,13.00
2008,08,04,04,09,13.10
2008,08,04,04,10,13.10
2008,08,04,04,11,13.10
2008,08,04,04,12,13.20
2008,08,04,04,13,13.30
2008,08,04,04,14,13.40
2008,08,04,04,15,13.50
2008,08,04,04,16,13.50
2008,08,04,04,17,13.60
2008,08,04,04,18,13.60
2008,08,04,04,19,13.70
2008,08,04,04,20,13.70
2008,08,04,04,21,13.80
2008,08,04,04,22,13.80
2008,08,04,04,23,13.90
2008,08,04,04,24,13.90
2008,08,04,04,25,13.90
2008,08,04,04,26,14.00
2008,08,04,04,27,14.00
2008,08,04,04,28,14.10
2008,08,04,04,29,14.10
2008,08,04,04,30,14.20
2008,08,04,04,31,14.20
2008,08,04,04,32,14.20
2008,08,04,04,33,14.20
2008,08,04,04,34,14.20
2008,08,04,04,35,14.20
2008,08,04,04,36,14.20
2008,08,04,04,37,14.20
2008,08,04,04,38,14.20
2008,08,04,04,39,14.20
2008,08,04,04,40,14.20
2008,08,04,04,41,14.20
2008,08,04,04,42,14.20
2008,08,04,04,43,14.20
2008,08,04,04,44,14.20
2008,08,04,04,45,14.10
2008,08,04,04,46,14.10
2008,08,04,04,47,14.10
2008,08,04,04,48,14.20
2008,08,04,04,49,14.20
2008,08,04,04,50,14.20
2008,08,04,04,51,14.20
2008,08,04,04,52,14.30
2008,08,04,04,53,14.30
2008,08,04,04,54,14.40
2008,08,04,04,55,14.40
2008,08,04,04,56,14.40
2008,08,04,04,57,14.40
2008,08,04,04,58,14.40
2008,08,04,04,59,14.40
2008,08,04,05,00,14.40
2008,08,04,05,01,14.40
2008,08,04,05,02,14.40
2008,08,04,05,03,14.40
2008,08,04,05,04,14.40
2008,08,04,05,05,14.40
2008,08,04,05,06,14.30
2008,08,04,05,07,14.40
2008,08,04,05,08,14.30
2008,08,04,05,09,14.30
2008,08,04,05,10,14.30
2008,08,04,05,11,14.30
2008,08,04,05,12,14.30
2008,08,04,05,13,14.30
2008,08,04,05,14,14.30
2008,08,04,05,15,14.30
2008,08,04,05,16,14.30
2008,08,04,05,17,14.30
2008,08,04,05,18,14.30
2008,08,04,05,19,14.30
2008,08,04,05,20,14.30
2008,08,04,05,21,14.30
2008,08,04,05,22,14.30
2008,08,04,05,23,14.40
2008,08,04,05,24,14.40
2008,08,04,05,25,14.40
2008,08,04,05,26,14.40
2008,08,04,05,27,14.40
2008,08,04,05,28,14.40
2008,08,04,05,29,14.40
2008,08,04,05,30,14.40
2008,08,04,05,31,14.40
2008,08,04,05,32,14.30
2008,08,04,05,33,14.30
2008,08,04,05,34,14.30
2008,08,04,05,35,14.30
2008,08,04,05,36,14.30
2008,08,04,05,37,14.30
2008,08,04,05,38,14.20
2008,08,04,05,39,14.20
2008,08,04,05,40,14.20
2008,08,04,05,41,14.20
2008,08,04,05,42,14.20
2008,08,04,05,43,14.20
2008,08,04,05,44,14.20
2008,08,04,05,45,14.30
2008,08,04,05,46,14.30
2008,08,04,05,47,14.30
2008,08,04,05,48,14.30
2008,08,04,05,49,14.30
2008,08,04,05,50,14.30
2008,08,04,05,51,14.30
2008,08,04,05,52,14.30
2008,08,04,05,53,14.30
2008,08,04,05,54,14.30
2008,08,04,05,55,14.30
2008,08,04,05,56,14.30
2008,08,04,05,57,14.30
2008,08,04,05,58,14.30
2008,08,04,05,59,14.30
2008,08,04,06,00,14.30
2008,08,04,06,01,14.30
2008,08,04,06,02,14.30
2008,08,04,06,03,14.30
2008,08,04,06,04,14.30
2008,08,04,06,05,14.30
2008,08,04,06,06,14.30
2008,08,04,06,07,14.30
2008,08,04,06,08,14.30
2008,08,04,06,09,14.30
2008,08,04,06,10,14.30
2008,08,04,06,11,14.30
2008,08,04,06,12,14.30
2008,08,04,06,13,14.30
2008,08,04,06,14,14.30
2008,08,04,06,15,14.30
2008,08,04,06,16,14.30
2008,08,04,06,17,14.30
2008,08,04,06,18,14.40
2008,08,04,06,19,14.40
2008,08,04,06,20,14.40
2008,08,04,06,21,14.40
2008,08,04,06,22,14.40
2008,08,04,06,23,14.40
2008,08,04,06,24,14.40
2008,08,04,06,25,14.40
2008,08,04,06,26,14.40
2008,08,04,06,27,14.30
2008,08,04,06,28,14.30
2008,08,04,06,29,14.30
2008,08,04,06,30,14.30
2008,08,04,06,31,14.30
2008,08,04,06,32,14.30
2008,08,04,06,33,14.30
2008,08,04,06,34,14.30
2008,08,04,06,35,14.40
2008,08,04,06,36,14.40
2008,08,04,06,37,14.40
2008,08,04,06,38,14.50
2008,08,04,06,39,14.50
2008,08,04,06,40,14.60
2008,08,04,06,41,14.70
2008,08,04,06,42,14.80
2008,08,04,06,43,14.80
2008,08,04,06,44,15.00
2008,08,04,06,45,15.00
2008,08,04,06,46,15.00
2008,08,04,06,47,15.10
2008,08,04,06,48,15.20
2008,08,04,06,49,15.30
2008,08,04,06,50,15.30
2008,08,04,06,51,15.40
2008,08,04,06,52,15.40
2008,08,04,06,53,15.50
2008,08,04,06,54,15.50
2008,08,04,06,55,15.60
2008,08,04,06,56,15.70
2008,08,04,06,57,15.70
2008,08,04,06,58,15.80
2008,08,04,06,59,15.80
2008,08,04,07,00,15.80
2008,08,04,07,01,15.90
2008,08,04,07,02,15.90
2008,08,04,07,03,15.90
2008,08,04,07,04,16.00
2008,08,04,07,05,16.00
2008,08,04,07,06,16.10
2008,08,04,07,07,16.10
2008,08,04,07,08,16.10
2008,08,04,07,09,16.20
2008,08,04,07,10,16.20
2008,08,04,07,11,16.30
2008,08,04,07,12,16.30
2008,08,04,07,13,16.30
2008,08,04,07,14,16.30
2008,08,04,07,15,16.30
2008,08,04,07,16,16.40
2008,08,04,07,17,16.40
2008,08,04,07,18,16.40
2008,08,04,07,19,16.50
2008,08,04,07,20,16.50
2008,08,04,07,21,16.60
2008,08,04,07,22,16.60
2008,08,04,07,23,16.60
2008,08,04,07,24,16.60
2008,08,04,07,25,16.50
2008,08,04,07,26,16.50
2008,08,04,07,27,16.50
2008,08,04,07,28,16.50
2008,08,04,07,29,16.50
2008,08,04,07,30,16.50
2008,08,04,07,31,16.50
2008,08,04,07,32,16.50
2008,08,04,07,33,16.50
2008,08,04,07,34,16.60
2008,08,04,07,35,16.60
2008,08,04,07,36,16.60
2008,08,04,07,37,16.70
2008,08,04,07,38,16.70
2008,08,04,07,39,16.70
2008,08,04,07,40,16.70
2008,08,04,07,41,16.80
2008,08,04,07,42,16.80
2008,08,04,07,43,16.80
2008,08,04,07,44,16.80
2008,08,04,07,45,16.80
2008,08,04,07,46,16.80
2008,08,04,07,47,16.80
2008,08,04,07,48,16.80
2008,08,04,07,49,16.80
2008,08,04,07,50,16.80
2008,08,04,07,51,16.70
2008,08,04,07,52,16.70
2008,08,04,07,53,16.70
2008,08,04,07,54,16.70
2008,08,04,07,55,16.70
2008,08,04,07,56,16.80
2008,08,04,07,57,16.80
2008,08,04,07,58,16.80
2008,08,04,07,59,16.80
2008,08,04,08,00,16.90
2008,08,04,08,01,16.90
2008,08,04,08,02,16.90
2008,08,04,08,03,16.90
2008,08,04,08,04,17.00
2008,08,04,08,05,17.00
2008,08,04,08,06,17.10
2008,08,04,08,07,17.10
2008,08,04,08,08,17.10
2008,08,04,08,09,17.20
2008,08,04,08,10,17.20
2008,08,04,08,11,17.30
2008,08,04,08,12,17.30
2008,08,04,08,13,17.40
2008,08,04,08,14,17.40
2008,08,04,08,15,17.50
2008,08,04,08,16,17.50
2008,08,04,08,17,17.50
2008,08,04,08,18,17.60
2008,08,04,08,19,17.60
2008,08,04,08,20,17.60
2008,08,04,08,21,17.60
2008,08,04,08,22,17.60
2008,08,04,08,23,17.70
2008,08,04,08,24,17.70
2008,08,04,08,25,17.60
2008,08,04,08,26,17.70
2008,08,04,08,27,17.70
2008,08,04,08,28,17.70
2008,08,04,08,29,17.70
2008,08,04,08,30,17.70
2008,08,04,08,31,17.70
2008,08,04,08,32,17.70
2008,08,04,08,33,17.70
2008,08,04,08,34,17.70
2008,08,04,08,35,17.70
2008,08,04,08,36,17.70
2008,08,04,08,37,17.70
2008,08,04,08,38,17.70
2008,08,04,08,39,17.70
2008,08,04,08,40,17.70
2008,08,04,08,41,17.70
2008,08,04,08,42,17.60
2008,08,04,08,43,17.60
2008,08,04,08,44,17.60
2008,08,04,08,45,17.60
2008,08,04,08,46,17.50
2008,08,04,08,47,17.50
2008,08,04,08,48,17.50
2008,08,04,08,49,17.50
2008,08,04,08,50,17.50
2008,08,04,08,51,17.60
2008,08,04,08,52,17.60
2008,08,04,08,53,17.70
2008,08,04,08,54,17.70
2008,08,04,08,55,17.80
2008,08,04,08,56,17.80
2008,08,04,08,57,17.90
2008,08,04,08,58,17.90
2008,08,04,08,59,17.90
2008,08,04,09,00,18.00
2008,08,04,09,01,18.10
2008,08,04,09,02,18.10
2008,08,04,09,03,18.10
2008,08,04,09,04,18.10
2008,08,04,09,05,18.10
2008,08,04,09,06,18.10
2008,08,04,09,07,18.10
2008,08,04,09,08,18.10
2008,08,04,09,09,18.20
2008,08,04,09,10,18.20
2008,08,04,09,11,18.20
2008,08,04,09,12,18.20
2008,08,04,09,13,18.30
2008,08,04,09,14,18.30
2008,08,04,09,15,18.30
2008,08,04,09,16,18.40
2008,08,04,09,17,18.30
2008,08,04,09,18,18.30
2008,08,04,09,19,18.30
2008,08,04,09,20,18.30
2008,08,04,09,21,18.30
2008,08,04,09,22,18.40
2008,08,04,09,23,18.40
2008,08,04,09,24,18.40
2008,08,04,09,25,18.40
2008,08,04,09,26,18.40
2008,08,04,09,27,18.50
2008,08,04,09,28,18.50
2008,08,04,09,29,18.50
2008,08,04,09,30,18.50
2008,08,04,09,31,18.50
2008,08,04,09,32,18.50
2008,08,04,09,33,18.50
2008,08,04,09,34,18.40
2008,08,04,09,35,18.30
2008,08,04,09,36,18.20
2008,08,04,09,37,18.20
2008,08,04,09,38,18.30
2008,08,04,09,39,18.30
2008,08,04,09,40,18.30
2008,08,04,09,41,18.30
2008,08,04,09,42,18.30
2008,08,04,09,43,18.30
2008,08,04,09,44,18.30
2008,08,04,09,45,18.30
2008,08,04,09,46,18.30
2008,08,04,09,47,18.30
2008,08,04,09,48,18.40
2008,08,04,09,49,18.50
2008,08,04,09,50,18.60
2008,08,04,09,51,18.70
2008,08,04,09,52,18.80
2008,08,04,09,53,18.90
2008,08,04,09,54,18.80
2008,08,04,09,55,18.80
2008,08,04,09,56,18.80
2008,08,04,09,57,18.80
2008,08,04,09,58,18.80
2008,08,04,09,59,18.90
2008,08,04,10,00,18.90
2008,08,04,10,01,19.00
2008,08,04,10,02,19.00
2008,08,04,10,03,19.00
2008,08,04,10,04,19.00
2008,08,04,10,05,19.00
2008,08,04,10,06,19.10
2008,08,04,10,07,19.10
2008,08,04,10,08,19.20
2008,08,04,10,09,19.30
2008,08,04,10,10,19.40
2008,08,04,10,11,19.50
2008,08,04,10,12,19.60
2008,08,04,10,13,19.60
2008,08,04,10,14,19.70
2008,08,04,10,15,19.80
2008,08,04,10,16,19.80
2008,08,04,10,17,19.80
2008,08,04,10,18,19.90
2008,08,04,10,19,19.90
2008,08,04,10,20,20.00
2008,08,04,10,21,20.00
2008,08,04,10,22,19.90
2008,08,04,10,23,19.90
2008,08,04,10,24,19.90
2008,08,04,10,25,20.00
2008,08,04,10,26,20.00
2008,08,04,10,27,19.90
2008,08,04,10,28,19.80
2008,08,04,10,29,19.80
2008,08,04,10,30,19.70
2008,08,04,10,31,19.70
2008,08,04,10,32,19.70
2008,08,04,10,33,19.60
2008,08,04,10,34,19.50
2008,08,04,10,35,19.50
2008,08,04,10,36,19.30
2008,08,04,10,37,19.30
2008,08,04,10,38,19.30
2008,08,04,10,39,19.30
2008,08,04,10,40,19.40
2008,08,04,10,41,19.50
2008,08,04,10,42,19.50
2008,08,04,10,43,19.50
2008,08,04,10,44,19.40
2008,08,04,10,45,19.40
2008,08,04,10,46,19.30
2008,08,04,10,47,19.30
2008,08,04,10,48,19.20
2008,08,04,10,49,19.20
2008,08,04,10,50,19.30
2008,08,04,10,51,19.30
2008,08,04,10,52,19.30
2008,08,04,10,53,19.30
2008,08,04,10,54,19.30
2008,08,04,10,55,19.30
2008,08,04,10,56,19.40
2008,08,04,10,57,19.40
2008,08,04,10,58,19.40
2008,08,04,10,59,19.40
2008,08,04,11,00,19.40
2008,08,04,11,01,19.40
2008,08,04,11,02,19.50
2008,08,04,11,03,19.50
2008,08,04,11,04,19.60
2008,08,04,11,05,19.70
2008,08,04,11,06,19.70
2008,08,04,11,07,19.80
2008,08,04,11,08,19.80
2008,08,04,11,09,19.80
2008,08,04,11,10,19.80
2008,08,04,11,11,19.90
2008,08,04,11,12,19.90
2008,08,04,11,13,19.90
2008,08,04,11,14,19.90
2008,08,04,11,15,19.90
2008,08,04,11,16,20.00
2008,08,04,11,17,20.00
2008,08,04,11,18,20.10
2008,08,04,11,19,20.10
2008,08,04,11,20,20.10
2008,08,04,11,21,20.00
2008,08,04,11,22,20.00
2008,08,04,11,23,19.90
2008,08,04,11,24,19.90
2008,08,04,11,25,19.90
2008,08,04,11,26,19.80
2008,08,04,11,27,19.80
2008,08,04,11,28,19.70
2008,08,04,11,29,19.70
2008,08,04,11,30,19.70
2008,08,04,11,31,19.70
2008,08,04,11,32,19.70
2008,08,04,11,33,19.80
2008,08,04,11,34,19.80
2008,08,04,11,35,19.80
2008,08,04,11,36,19.90
2008,08,04,11,37,19.90
2008,08,04,11,38,20.00
2008,08,04,11,39,20.10
2008,08,04,11,40,20.10
2008,08,04,11,41,20.20
2008,08,04,11,42,20.20
2008,08,04,11,43,20.30
2008,08,04,11,44,20.30
2008,08,04,11,45,20.30
2008,08,04,11,46,20.20
2008,08,04,11,47,20.20
2008,08,04,11,48,20.20
2008,08,04,11,49,20.20
2008,08,04,11,50,20.20
2008,08,04,11,51,20.20
2008,08,04,11,52,20.20
2008,08,04,11,53,20.20
2008,08,04,11,54,20.20
2008,08,04,11,55,20.20
2008,08,04,11,56,20.20
2008,08,04,11,57,20.20
2008,08,04,11,58,20.20
2008,08,04,11,59,20.10
2008,08,04,12,00,20.10
2008,08,04,12,01,20.10
2008,08,04,12,02,20.10
2008,08,04,12,03,20.20
2008,08,04,12,04,20.30
2008,08,04,12,05,20.40
2008,08,04,12,06,20.40
2008,08,04,12,07,20.50
2008,08,04,12,08,20.60
2008,08,04,12,09,20.60
2008,08,04,12,10,20.70
2008,08,04,12,11,20.80
2008,08,04,12,12,20.80
2008,08,04,12,13,20.90
2008,08,04,12,14,20.90
2008,08,04,12,15,20.90
2008,08,04,12,16,21.00
2008,08,04,12,17,21.00
2008,08,04,12,18,21.10
2008,08,04,12,19,21.10
2008,08,04,12,20,21.10
2008,08,04,12,21,21.10
2008,08,04,12,22,21.10
2008,08,04,12,23,21.20
2008,08,04,12,24,21.40
2008,08,04,12,25,21.50
2008,08,04,12,26,21.60
2008,08,04,12,27,21.70
2008,08,04,12,28,21.60
2008,08,04,12,29,21.50
2008,08,04,12,30,21.50
2008,08,04,12,31,21.40
2008,08,04,12,32,21.40
2008,08,04,12,33,21.40
2008,08,04,12,34,21.60
2008,08,04,12,35,21.60
2008,08,04,12,36,21.80
2008,08,04,12,37,21.80
2008,08,04,12,38,21.80
2008,08,04,12,39,21.70
2008,08,04,12,40,21.70
2008,08,04,12,41,21.70
2008,08,04,12,42,21.70
2008,08,04,12,43,21.80
2008,08,04,12,44,21.90
2008,08,04,12,45,22.00
2008,08,04,12,46,22.10
2008,08,04,12,47,22.00
2008,08,04,12,48,21.90
2008,08,04,12,49,21.70
2008,08,04,12,50,21.60
2008,08,04,12,51,21.60
2008,08,04,12,52,21.60
2008,08,04,12,53,21.70
2008,08,04,12,54,21.80
2008,08,04,12,55,21.80
2008,08,04,12,56,22.00
2008,08,04,12,57,22.10
2008,08,04,12,58,22.20
2008,08,04,12,59,22.20
2008,08,04,13,00,22.10
2008,08,04,13,01,22.00
2008,08,04,13,02,22.10
2008,08,04,13,03,22.20
2008,08,04,13,04,22.30
2008,08,04,13,05,22.30
2008,08,04,13,06,22.40
2008,08,04,13,07,22.50
2008,08,04,13,08,22.60
2008,08,04,13,09,22.60
2008,08,04,13,10,22.70
2008,08,04,13,11,22.60
2008,08,04,13,12,22.50
2008,08,04,13,13,22.30
2008,08,04,13,14,22.20
2008,08,04,13,15,22.20
2008,08,04,13,16,22.20
2008,08,04,13,17,22.20
2008,08,04,13,18,22.20
2008,08,04,13,19,22.30
2008,08,04,13,20,22.30
2008,08,04,13,21,22.30
2008,08,04,13,22,22.30
2008,08,04,13,23,22.30
2008,08,04,13,24,22.30
2008,08,04,13,25,22.40
2008,08,04,13,26,22.50
2008,08,04,13,27,22.60
2008,08,04,13,28,22.70
2008,08,04,13,29,22.80
2008,08,04,13,30,22.80
2008,08,04,13,31,22.70
2008,08,04,13,32,22.50
2008,08,04,13,33,22.40
2008,08,04,13,34,22.40
2008,08,04,13,35,22.40
2008,08,04,13,36,22.30
2008,08,04,13,37,22.40
2008,08,04,13,38,22.40
2008,08,04,13,39,22.40
2008,08,04,13,40,22.40
2008,08,04,13,41,22.40
2008,08,04,13,42,22.30
2008,08,04,13,43,22.30
2008,08,04,13,44,22.30
2008,08,04,13,45,22.30
2008,08,04,13,46,22.40
2008,08,04,13,47,22.40
2008,08,04,13,48,22.50
2008,08,04,13,49,22.50
2008,08,04,13,50,22.60
2008,08,04,13,51,22.70
2008,08,04,13,52,22.80
2008,08,04,13,53,22.90
2008,08,04,13,54,23.00
2008,08,04,13,55,23.20
2008,08,04,13,56,23.30
2008,08,04,13,57,23.40
2008,08,04,13,58,23.40
2008,08,04,13,59,23.50
2008,08,04,14,00,23.40
2008,08,04,14,01,23.30
2008,08,04,14,02,23.20
2008,08,04,14,03,23.20
2008,08,04,14,04,23.20
2008,08,04,14,05,23.20
2008,08,04,14,06,23.30
2008,08,04,14,07,23.40
2008,08,04,14,08,23.50
2008,08,04,14,09,23.60
2008,08,04,14,10,23.70
2008,08,04,14,11,23.60
2008,08,04,14,12,23.60
2008,08,04,14,13,23.50
2008,08,04,14,14,23.40
2008,08,04,14,15,23.40
2008,08,04,14,16,23.40
2008,08,04,14,17,23.30
2008,08,04,14,18,23.20
2008,08,04,14,19,23.10
2008,08,04,14,20,23.00
2008,08,04,14,21,23.00
2008,08,04,14,22,23.00
2008,08,04,14,23,22.90
2008,08,04,14,24,22.90
2008,08,04,14,25,22.90
2008,08,04,14,26,22.90
2008,08,04,14,27,22.90
2008,08,04,14,28,23.00
2008,08,04,14,29,23.10
2008,08,04,14,30,23.10
2008,08,04,14,31,23.20
2008,08,04,14,32,23.30
2008,08,04,14,33,23.30
2008,08,04,14,34,23.30
2008,08,04,14,35,23.30
2008,08,04,14,36,23.30
2008,08,04,14,37,23.40
2008,08,04,14,38,23.40
2008,08,04,14,39,23.50
2008,08,04,14,40,23.60
2008,08,04,14,41,23.70
2008,08,04,14,42,23.80
2008,08,04,14,43,23.80
2008,08,04,14,44,23.80
2008,08,04,14,45,23.80
2008,08,04,14,46,23.90
2008,08,04,14,47,23.80
2008,08,04,14,48,23.70
2008,08,04,14,49,23.70
2008,08,04,14,50,23.60
2008,08,04,14,51,23.60
2008,08,04,14,52,23.50
2008,08,04,14,53,23.40
2008,08,04,14,54,23.40
2008,08,04,14,55,23.40
2008,08,04,14,56,23.40
2008,08,04,14,57,23.40
2008,08,04,14,58,23.40
2008,08,04,14,59,23.50
2008,08,04,15,00,23.60
2008,08,04,15,01,23.60
2008,08,04,15,02,23.60
2008,08,04,15,03,23.70
2008,08,04,15,04,23.70
2008,08,04,15,05,23.70
2008,08,04,15,06,23.80
2008,08,04,15,07,23.80
2008,08,04,15,08,23.90
2008,08,04,15,09,24.00
2008,08,04,15,10,24.10
2008,08,04,15,11,24.10
2008,08,04,15,12,24.20
2008,08,04,15,13,24.20
2008,08,04,15,14,24.20
2008,08,04,15,15,24.20
2008,08,04,15,16,24.20
2008,08,04,15,17,24.30
2008,08,04,15,18,24.40
2008,08,04,15,19,24.50
2008,08,04,15,20,24.60
2008,08,04,15,21,24.60
2008,08,04,15,22,24.60
2008,08,04,15,23,24.50
2008,08,04,15,24,24.60
2008,08,04,15,25,24.60
2008,08,04,15,26,24.50
2008,08,04,15,27,24.50
2008,08,04,15,28,24.40
2008,08,04,15,29,24.30
2008,08,04,15,30,24.40
2008,08,04,15,31,24.40
2008,08,04,15,32,24.40
2008,08,04,15,33,24.50
2008,08,04,15,34,24.60
2008,08,04,15,35,24.60
2008,08,04,15,36,24.70
2008,08,04,15,37,24.70
2008,08,04,15,38,24.60
2008,08,04,15,39,24.50
2008,08,04,15,40,24.40
2008,08,04,15,41,24.30
2008,08,04,15,42,24.30
2008,08,04,15,43,24.20
2008,08,04,15,44,24.00
2008,08,04,15,45,23.90
2008,08,04,15,46,23.80
2008,08,04,15,47,23.80
2008,08,04,15,48,23.80
2008,08,04,15,49,23.80
2008,08,04,15,50,23.90
2008,08,04,15,51,23.80
2008,08,04,15,52,23.90
2008,08,04,15,53,23.80
2008,08,04,15,54,23.80
2008,08,04,15,55,23.80
2008,08,04,15,56,23.80
2008,08,04,15,57,23.90
2008,08,04,15,58,24.00
2008,08,04,15,59,24.00
2008,08,04,16,00,24.10
2008,08,04,16,01,24.10
2008,08,04,16,02,24.10
2008,08,04,16,03,24.10
2008,08,04,16,04,24.20
2008,08,04,16,05,24.30
2008,08,04,16,06,24.40
2008,08,04,16,07,24.40
2008,08,04,16,08,24.40
2008,08,04,16,09,24.40
2008,08,04,16,10,24.30
2008,08,04,16,11,24.30
2008,08,04,16,12,24.30
2008,08,04,16,13,24.30
2008,08,04,16,14,24.30
2008,08,04,16,15,24.30
2008,08,04,16,16,24.20
2008,08,04,16,17,24.30
2008,08,04,16,18,24.20
2008,08,04,16,19,24.30
2008,08,04,16,20,24.30
2008,08,04,16,21,24.30
2008,08,04,16,22,24.30
2008,08,04,16,23,24.30
2008,08,04,16,24,24.40
2008,08,04,16,25,24.40
2008,08,04,16,26,24.40
2008,08,04,16,27,24.40
2008,08,04,16,28,24.40
2008,08,04,16,29,24.40
2008,08,04,16,30,24.30
2008,08,04,16,31,24.30
2008,08,04,16,32,24.30
2008,08,04,16,33,24.30
2008,08,04,16,34,24.30
2008,08,04,16,35,24.30
2008,08,04,16,36,24.30
2008,08,04,16,37,24.30
2008,08,04,16,38,24.30
2008,08,04,16,39,24.30
2008,08,04,16,40,24.30
2008,08,04,16,41,24.40
2008,08,04,16,42,24.50
2008,08,04,16,43,24.50
2008,08,04,16,44,24.60
2008,08,04,16,45,24.60
2008,08,04,16,46,24.60
2008,08,04,16,47,24.60
2008,08,04,16,48,24.60
2008,08,04,16,49,24.70
2008,08,04,16,50,24.80
2008,08,04,16,51,24.90
2008,08,04,16,52,25.00
2008,08,04,16,53,25.00
2008,08,04,16,54,25.00
2008,08,04,16,55,25.00
2008,08,04,16,56,25.00
2008,08,04,16,57,25.00
2008,08,04,16,58,24.90
2008,08,04,16,59,24.90
2008,08,04,17,00,24.90
2008,08,04,17,01,24.80
2008,08,04,17,02,24.80
2008,08,04,17,03,24.80
2008,08,04,17,04,24.80
2008,08,04,17,05,24.80
2008,08,04,17,06,24.80
2008,08,04,17,07,24.90
2008,08,04,17,08,24.90
2008,08,04,17,09,24.90
2008,08,04,17,10,24.90
2008,08,04,17,11,25.00
2008,08,04,17,12,25.00
2008,08,04,17,13,25.00
2008,08,04,17,14,25.00
2008,08,04,17,15,25.00
2008,08,04,17,16,25.00
2008,08,04,17,17,25.00
2008,08,04,17,18,25.00
2008,08,04,17,19,25.10